Miscellaneous Local Product
Issued by NWS Hastings, NE

Home | Current Version | Previous Version | Text Only | Print | Product List | Glossary Off
Versions: 1 2 3 4 5 6 7 8 9 10 11 12 13 14 15 16 17 18 19 20 21 22 23 24 25 26 27 28 29 30 31 32 33 34 35 36 37 38 39 40 41 42 43 44 45 46 47 48 49 50

092
AXUS43 KGID 292102
MISGRI

GID CWA HOURLY WEATHER ROUNDUP
NATIONAL WEATHER SERVICE HASTINGS NE
400 PM CDT MON MAY 29 2017

NOTE: "FAIR" INDICATES FEW OR NO CLOUDS BELOW 12,000 FEET WITH NO
SIGNIFICANT WEATHER AND/OR OBSTRUCTIONS TO VISIBILITY.

...SOUTH CENTRAL NEBRASKA...

CITY           SKY/WX    TMP DP  RH WIND       PRES   REMARKS
GRAND ISLAND   PTSUNNY   75  37  25 W16G29    30.07F
HASTINGS       SUNNY     76  37  24 NW17G25   30.07F
KEARNEY        MOSUNNY   73  37  27 N13G22    30.09S
ORD            MOSUNNY   68  34  28 NW17G26   30.07F
YORK           MOSUNNY   73  32  21 NW23      30.05S
AURORA         MOSUNNY   75  34  22 N18G24    30.06S
LEXINGTON      SUNNY     75  32  20 N18       30.09F
HOLDREGE       SUNNY     74  32  21 NW14G23   30.08F
HEBRON         MOSUNNY   78  37  22 NW10G18   30.04S

...NEBRASKA PANHANDLE...

CITY           SKY/WX    TMP DP  RH WIND       PRES   REMARKS
CHADRON        SUNNY     69  42  37 VRB7      30.12F
ALLIANCE       SUNNY     69  35  28 NW17G26   30.13F
SCOTTSBLUFF    SUNNY     73  33  23 NW15G31   30.15F
SIDNEY         SUNNY     70  40  33 N14G25    30.17F

...WESTERN AND NORTH CENTRAL NEBRASKA...

CITY           SKY/WX    TMP DP  RH WIND       PRES   REMARKS
VALENTINE      PTSUNNY   68  34  28 NW17      30.10F
AINSWORTH      PTSUNNY   66  38  34 N15G26    30.10S
ONEILL         PTSUNNY   68  35  29 NW14G28   30.07S
BROKEN BOW     SUNNY     73  35  25 NW20G28   30.09F
IMPERIAL       MOSUNNY   73  39  29 N8        30.12F
NORTH PLATTE   SUNNY     73  36  25 N15G30    30.10F
MCCOOK         MOSUNNY   76  40  27 NW15G22   30.09F

...EASTERN NEBRASKA...

CITY           SKY/WX    TMP DP  RH WIND       PRES   REMARKS
NORFOLK        MOSUNNY   70  39  32 NW20G29   30.03S
SO SIOUX CITY  PTSUNNY   68  44  42 NW17G26   29.98S
TEKAMAH        PTSUNNY   74  37  26 W17G25    29.99S
ALBION         MOSUNNY   71  36  28 NW18G28   30.07S
OMAHA EPPLEY   MOSUNNY   75  37  25 NW21G28   29.99S
OFFUTT AFB     MOSUNNY   75  39  27 W22G30    29.98F
MILLARD        MOSUNNY   75  42  30 NW17G25   30.00S
LINCOLN        MOSUNNY   76  36  23 NW17G32   30.03S
NEBRASKA CITY  MOSUNNY   77  28  17 NW18G25   30.00F
BEATRICE       MOSUNNY   78  45  31 NW13G24   30.02S
FALLS CITY     NOT AVBL

...NORTHERN KANSAS...

CITY           SKY/WX    TMP DP  RH WIND       PRES   REMARKS
GOODLAND       SUNNY     72  43  35 NW8       30.15F
HILL CITY      CLOUDY    77  40  26 NW8       30.10F
NORTON         PTCLDY    75  39  27 NW8G21    30.09S
PHILLIPSBURG   MOSUNNY   79  39  24 NW13G21   30.08S
SMITH CENTER   SUNNY     79  37  22 NW14G21   30.07F
HAYS           CLOUDY    74  45  35 W13G20    30.10R
RUSSELL        SUNNY     76  46  34 N15G22    30.07S
CONCORDIA      MOSUNNY   74  48  39 W9G21     30.04F
SALINA         SUNNY     83  50  31 N13       30.04F
TOPEKA         SUNNY     81  49  32 NW8       30.00F



USA.gov is the U.S. government's official web portal to all federal, state and local government web resources and services.